KB7CPC Weather Reports


time (UTC)temp
F
wind
direction
speed
knots
gust
knots
rain 1hr
in
rain 24hr
in
rain mn
in
humidity
%
barometer
mb
20260505194456 73 313 1.7 7.8 0.00 0.00 0.00 44 1008.6
20260505193443 73 40 0.9 7.8 0.00 0.00 0.00 45 1008.6
20260505192500 71 172 1.7 6.1 0.00 0.00 0.00 53 1008.9
20260505191506 71 311 0.9 5.2 0.00 0.00 0.00 50 1008.9
20260505190454 70 300 2.6 5.2 0.00 0.00 0.00 54 1009.1
20260505185440 70 281 1.7 5.2 0.00 0.00 0.00 52 1009.1
20260505184425 70 251 1.7 5.2 0.00 0.00 0.00 53 1009.1
20260505183450 69 302 1.7 7.8 0.00 0.00 0.00 51 1009.2
20260505182443 68 261 1.7 7.8 0.00 0.00 0.00 56 1009.2
20260505181442 67 273 2.6 7.0 0.00 0.00 0.00 57 1009.3
20260505180431 67 298 2.6 7.0 0.00 0.00 0.00 59 1009.3
20260505175357 67 303 2.6 5.2 0.00 0.00 0.00 57 1008.8
20260505174357 67 17 0.9 7.0 0.00 0.00 0.00 56 1008.8
20260505173352 66 298 1.7 7.0 0.00 0.00 0.00 61 1008.9
20260505170041 64 279 2.6 7.0 0.00 0.00 0.00 60 1008.9
20260505165043 64 343 2.6 6.1 0.00 0.00 0.00 61 1008.5
20260505164016 64 256 2.6 5.2 0.00 0.00 0.00 62 1008.5
20260505162957 63 257 1.7 5.2 0.00 0.00 0.00 64 1008.6
20260505162020 63 286 1.7 5.2 0.00 0.00 0.00 64 1008.7
20260505152632 59 261 3.5 6.1 0.00 0.00 0.00 72 1008.5
20260505151606 59 214 4.3 7.8 0.00 0.00 0.00 75 1008.4
20260505150546 58 246 4.3 7.8 0.00 0.00 0.00 79 1008.6
20260505140318 50 215 1.7 3.5 0.00 0.00 0.00 90 1008.3
20260505123710 51 202 1.7 2.6 0.00 0.00 0.00 88 1006.8
20260505121533 52 200 1.7 2.6 0.00 0.00 0.00 87 1006.6
20260505120539 53 201 1.7 2.6 0.00 0.00 0.00 86 1006.3
20260505114421 54 212 0.0 1.7 0.00 0.00 0.00 86 1006.0
20260505113445 54 227 1.7 2.6 0.00 0.00 0.00 86 1006.0
20260505112506 54 200 0.9 2.6 0.00 0.00 0.00 85 1006.1
20260505111446 54 200 1.7 3.5 0.00 0.00 0.00 85 1006.1
20260505110449 54 211 1.7 3.5 0.00 0.00 0.00 85 1006.0
20260505101239 53 200 3.5 4.3 0.00 0.00 0.00 85 1005.6
20260505100303 52 190 3.5 6.1 0.00 0.00 0.00 86 1005.6
20260505095301 52 205 3.5 6.1 0.00 0.00 0.00 86 1005.7
20260505094325 51 207 1.7 3.5 0.00 0.00 0.00 87 1005.7
20260505093305 51 219 1.7 2.6 0.00 0.00 0.00 85 1005.6
20260505092239 51 196 1.7 3.5 0.00 0.00 0.00 85 1005.8
20260505091229 50 193 1.7 3.5 0.00 0.00 0.00 85 1005.8
20260505090204 51 218 1.7 3.5 0.00 0.00 0.00 84 1005.6
20260505085216 51 183 1.7 2.6 0.00 0.00 0.00 83 1005.6
20260505084157 51 197 2.6 3.5 0.00 0.00 0.00 81 1005.6
20260505083141 52 192 1.7 3.5 0.00 0.00 0.00 79 1005.7
20260505082129 54 220 1.7 3.5 0.00 0.00 0.00 77 1005.5
20260505081148 54 171 0.9 3.5 0.00 0.00 0.00 76 1005.6
20260505080116 55 209 0.9 2.6 0.00 0.00 0.00 76 1005.3
20260505075107 56 222 0.9 4.3 0.00 0.00 0.00 74 1005.3
20260505074103 56 186 0.9 4.3 0.00 0.00 0.00 73 1005.3
20260505071953 57 290 1.7 3.5 0.00 0.00 0.00 71 1004.9
20260505071005 56 257 0.0 2.6 0.00 0.00 0.00 72 1005.0
20260505070024 56 248 0.9 4.3 0.00 0.00 0.00 72 1005.0
20260505065027 58 270 2.6 4.3 0.00 0.00 0.00 67 1004.8
20260505062903 61 276 0.0 2.6 0.00 0.00 0.00 61 1004.7
20260505061831 61 269 0.0 1.7 0.00 0.00 0.00 62 1004.7
20260505060830 60 144 0.0 3.5 0.00 0.00 0.00 64 1004.8
20260505052451 63 292 6.1 9.6 0.00 0.00 0.00 58 1004.2
20260505051506 63 271 5.2 9.6 0.00 0.00 0.00 58 1004.1
20260505040257 65 306 7.0 13.9 0.00 0.00 0.00 53 1003.6
20260505035230 67 306 9.6 13.9 0.00 0.00 0.00 50 1003.9
20260505034210 67 316 8.7 12.2 0.00 0.00 0.00 51 1003.8
20260505033209 66 295 7.0 10.4 0.00 0.00 0.00 51 1003.7
20260505032211 67 309 7.8 10.4 0.00 0.00 0.00 49 1003.7
20260505030041 69 310 7.8 13.0 0.00 0.00 0.00 47 1003.4
20260505025055 70 316 8.7 11.3 0.00 0.00 0.00 45 1003.4
20260505024051 70 297 7.8 12.2 0.00 0.00 0.00 45 1003.2
20260505023051 71 306 7.0 12.2 0.00 0.00 0.00 43 1003.3
20260505022023 72 306 7.8 12.2 0.00 0.00 0.00 44 1003.1
20260505021041 72 315 7.8 13.9 0.00 0.00 0.00 44 1003.1
20260505020040 73 321 8.7 13.9 0.00 0.00 0.00 43 1003.1
20260505015056 74 306 8.7 12.2 0.00 0.00 0.00 42 1003.6
20260505014104 74 315 8.7 14.8 0.00 0.00 0.00 43 1003.7
20260505013118 75 311 9.6 14.8 0.00 0.00 0.00 41 1003.4
20260505012053 75 322 8.7 13.9 0.00 0.00 0.00 40 1003.5
20260505011021 76 328 8.7 12.2 0.00 0.00 0.00 40 1003.5
20260505010012 77 330 7.0 10.4 0.00 0.00 0.00 38 1003.8
20260505004947 77 332 6.1 10.4 0.00 0.00 0.00 37 1003.9
20260505003914 78 328 5.2 11.3 0.00 0.00 0.00 33 1003.9
20260505002929 78 326 6.1 11.3 0.00 0.00 0.00 29 1004.0
20260505001933 78 296 5.2 11.3 0.00 0.00 0.00 30 1004.0
20260505000911 78 290 7.0 11.3 0.00 0.00 0.00 31 1004.0
20260504235933 78 268 6.1 11.3 0.00 0.00 0.00 33 1003.9
20260504234921 78 297 7.0 11.3 0.00 0.00 0.00 34 1003.9
20260504233852 79 329 4.3 10.4 0.00 0.00 0.00 31 1003.6
20260504232905 80 335 5.2 12.2 0.00 0.00 0.00 32 1003.7
20260504230755 79 323 4.3 11.3 0.00 0.00 0.00 34 1004.1
20260504224651 79 13 2.6 10.4 0.00 0.00 0.00 31 1004.1
20260504223640 80 34 3.5 9.6 0.00 0.00 0.00 29 1004.2
20260504220420 79 295 2.6 7.8 0.00 0.00 0.00 31 1004.5
20260504215415 79 306 2.6 7.8 0.00 0.00 0.00 30 1004.5
20260504214430 79 325 1.7 7.8 0.00 0.00 0.00 35 1004.5
20260504213359 78 313 3.5 8.7 0.00 0.00 0.00 32 1004.8
20260504212404 78 326 5.2 8.7 0.00 0.00 0.00 32 1004.9
20260504211422 79 317 2.6 8.7 0.00 0.00 0.00 31 1004.9
20260504210414 79 35 2.6 7.8 0.00 0.00 0.00 34 1005.0
20260504204246 78 11 2.6 8.7 0.00 0.00 0.00 35 1005.0
20260504203256 78 348 2.6 8.7 0.00 0.00 0.00 32 1005.0
20260504202310 78 40 2.6 6.1 0.00 0.00 0.00 38 1005.0
20260504200216 77 5 3.5 7.8 0.00 0.00 0.00 36 1005.3
20260504195233 77 34 2.6 7.8 0.00 0.00 0.00 37 1005.0